Seward Weather Center

Moon Phase Calendar



Online Cameras

 


      

Current Conditions in Seward
5/11/2021 3:08:43 PM

45°F
Feels Like 39
Rain
Humidity
81%
Pressure
29.97"
Wind
10.4 mph (SSE)
Dew Point
39°F
UV Index
2/10 (Low)
Visibility
6 mi

Hourly Forecast

Date & Time Tue, May 11
3:00 PM
Tue, May 11
4:00 PM
Tue, May 11
5:00 PM
Tue, May 11
6:00 PM
Tue, May 11
7:00 PM
Tue, May 11
8:00 PM
Tue, May 11
9:00 PM
Tue, May 11
10:00 PM
Tue, May 11
11:00 PM
Wed, May 12
12:00 AM
Wed, May 12
1:00 AM
Wed, May 12
2:00 AM
Wed, May 12
3:00 AM
Wed, May 12
4:00 AM
Wed, May 12
5:00 AM
Wed, May 12
6:00 AM
Wed, May 12
7:00 AM
Wed, May 12
8:00 AM
Wed, May 12
9:00 AM
Wed, May 12
10:00 AM
Wed, May 12
11:00 AM
Wed, May 12
12:00 PM
Wed, May 12
1:00 PM
Wed, May 12
2:00 PM
Wed, May 12
3:00 PM
Wed, May 12
4:00 PM
Wed, May 12
5:00 PM
Wed, May 12
6:00 PM
Wed, May 12
7:00 PM
Wed, May 12
8:00 PM
Wed, May 12
9:00 PM
Wed, May 12
10:00 PM
Wed, May 12
11:00 PM
Thu, May 13
12:00 AM
Thu, May 13
1:00 AM
Thu, May 13
2:00 AM
Thu, May 13
3:00 AM
Thu, May 13
4:00 AM
Thu, May 13
5:00 AM
Thu, May 13
6:00 AM
Thu, May 13
7:00 AM
Thu, May 13
8:00 AM
Thu, May 13
9:00 AM
Thu, May 13
10:00 AM
Thu, May 13
11:00 AM
Thu, May 13
12:00 PM
Thu, May 13
1:00 PM
Thu, May 13
2:00 PM
Condition
Rain

Rain

Clouds

Clouds

Snow

Snow

Snow

Snow

Clouds

Clouds

Clouds

Clouds

Clouds

Snow

Snow

Clouds

Clouds

Clouds

Clouds

Clouds

Clouds

Clouds

Clouds

Rain

Rain

Rain

Clouds

Rain

Clouds

Clouds

Clouds

Clouds

Clouds

Clouds

Clouds

Clouds

Clouds

Clouds

Clouds

Clouds

Clouds

Clouds

Clouds

Clouds

Clouds

Clouds

Clouds

Clouds
Temperature 45°F44°F44°F43°F41°F40°F40°F40°F40°F40°F40°F40°F40°F40°F40°F40°F40°F40°F41°F43°F44°F45°F46°F45°F44°F43°F43°F43°F44°F44°F44°F43°F42°F41°F41°F40°F40°F40°F40°F40°F41°F42°F43°F44°F45°F46°F47°F48°F
Feels Like 43°F41°F39°F38°F38°F40°F40°F40°F40°F40°F40°F40°F40°F40°F40°F40°F40°F40°F40°F43°F44°F45°F44°F42°F42°F42°F43°F43°F44°F44°F44°F43°F42°F41°F41°F40°F40°F40°F40°F40°F41°F42°F43°F44°F45°F46°F46°F46°F
Cloudiness 90%92%94%96%98%100%100%100%100%100%100%100%100%100%100%100%99%99%97%93%75%71%69%74%79%82%100%99%97%89%83%77%58%53%57%65%72%77%100%100%100%100%100%99%93%85%74%66%
Visibility 3 mi1 mi0 mi0 mi0 mi0 mi0 mi0 mi1 mi4 mi5 mi4 mi1 mi0 mi0 mi0 mi2 mi6 mi6 mi6 mi6 mi6 mi6 mi4 mi1 mi1 mi0 mi1 mi6 mi6 mi6 mi6 mi6 mi6 mi6 mi6 mi6 mi6 mi6 mi6 mi6 mi6 mi6 mi6 mi6 mi6 mi6 mi6 mi
Precipitation 93%93%88%88%95%99%97%97%47%43%55%55%55%63%73%69%60%56%56%43%2%3%11%38%26%34%43%43%31%31%26%18%2%4%7%9%7%7%0%0%0%0%0%0%0%0%0%0%
Humidity 81%84%88%92%96%98%98%96%96%96%96%96%97%97%97%97%96%92%85%77%73%71%71%77%83%89%90%88%80%75%76%80%82%82%79%78%79%78%78%77%74%70%69%67%65%62%61%61%
Dew Point 39°F40°F40°F40°F40°F36°F36°F35°F35°F35°F35°F35°F35°F35°F35°F35°F35°F34°F33°F33°F32°F32°F33°F34°F36°F36°F36°F36°F34°F33°F33°F33°F33°F32°F31°F30°F30°F30°F30°F30°F30°F30°F30°F30°F31°F31°F31°F32°F
Pressure 29.97"29.97"30"30.03"30.06"30.12"30.12"30.12"30.15"30.15"30.18"30.18"30.18"30.18"30.18"30.18"30.18"30.18"30.18"30.18"30.18"30.18"30.18"30.18"30.18"30.18"30.18"30.18"30.18"30.15"30.18"30.18"30.18"30.18"30.18"30.18"30.18"30.21"30.18"30.18"30.18"30.18"30.18"30.18"30.18"30.15"30.15"30.15"
Wind Speed 3.6 mph6 mph7.5 mph6.5 mph4.5 mph2.6 mph1.7 mph1.7 mph1.7 mph1.4 mph1.1 mph1.5 mph1.9 mph1.6 mph1.7 mph1.4 mph1.6 mph2.3 mph3.1 mph2.9 mph1.9 mph1.8 mph4.2 mph5.1 mph5 mph3.3 mph1 mph0.2 mph0.5 mph1.3 mph1.8 mph2.2 mph1.2 mph0.2 mph1.2 mph1.8 mph2.6 mph2.7 mph2.8 mph2.7 mph2 mph0.5 mph1.5 mph1.9 mph1.7 mph2.6 mph4.2 mph5.3 mph
Wind
Direction
217°
SW
168°
SSE
149°
SSE
133°
SE
125°
SE
126°
SE
106°
ESE
103°
ESE
103°
ESE
84°
E
55°
NE
60°
ENE
73°
ENE
77°
ENE
78°
ENE
68°
ENE
55°
NE
36°
NE
23°
NNE
38°
NE
59°
ENE
116°
ESE
136°
SE
121°
ESE
126°
SE
136°
SE
162°
SSE
153°
SSE
105°
ESE
135°
SE
146°
SE
152°
SSE
155°
SSE
357°
N
10°
N

N
359°
N
360°
N

N

N

N
50°
NE
173°
S
180°
S
172°
S
171°
S
175°
S
172°
S

Daily Forecast

Date High Low Precip. Humidity
Today
May 11

Snow
45 °F
40 °F
99%
85%
Wednesday
May 12

Snow
46 °F
40 °F
73%
71%
Thursday
May 13

Clouds
48 °F
40 °F
9%
61%
Friday
May 14

Rain
47 °F
41 °F
79%
71%
Saturday
May 15

Rain
43 °F
41 °F
100%
98%
Sunday
May 16

Snow
45 °F
40 °F
83%
86%
Monday
May 17

Clouds
50 °F
39 °F
12%
64%
Tuesday
May 18

Clear
57 °F
44 °F
0%
55%
Wednesday
May 19

Clouds
63 °F
51 °F
0%
44%
Thursday
May 20

Rain
53 °F
45 °F
98%
93%
Friday
May 21

Rain
52 °F
45 °F
98%
82%
Saturday
May 22

Rain
51 °F
47 °F
20%
76%
Sunday
May 23

Rain
47 °F
42 °F
100%
88%
Monday
May 24

Rain
47 °F
42 °F
100%
95%
Tuesday
May 25

Rain
53 °F
45 °F
28%
68%
Wednesday
May 26

Clouds
64 °F
46 °F
0%
51%

Temperature 8-14 Day Outlook



Precipitation 8-14 Day Outlook




Quick Links
Seward News
Seward Photos
Seward Videos




About Us
Contact Us
Site Map
Search Site
Advertise With Us
   
Seward.USCoast.info
THE SEWARD WEBSITE

Copyright 2021, Coastal Town
Privacy    |    Legal